This demonstration page uses our WeatherBlox Daily Observations layout. Learn more.

39.92423, -83.80882

Hourly Observations for December 3, 2020

Temp ( °F °C ) Dew Point ( °F °C ) Humidity (%) Winds ( mph kmh ) Pressure ( in mb ) Visibility ( mi km ) Precip ( " mm )
12:56 am 00:56 Clear 27 -2.8 23 -5 85 85 SW 5 7 30.31 1027 10 16.0934 0 0
1:56 am 01:56 Clear 28 -2.2 24 -4.4 85 85 SW 8 13 30.3 1026 10 16.0934 0.01 0.254
2:56 am 02:56 Clear 27 -2.8 24 -4.4 89 89 WSW 8 13 30.31 1026 10 16.0934 0 0
3:56 am 03:56 Clear 25 -3.9 23 -5 92 92 SW 5 7 30.3 1026 10 16.0934 0.01 0.254
4:56 am 04:56 Clear 27 -2.8 24 -4.4 89 89 SSW 6 9 30.29 1026 10 16.0934 0 0
5:56 am 05:56 Clear 26 -3.3 23 -5 88 88 SW 3 6 30.29 1026 10 16.0934 0 0
6:56 am 06:56 Clear 23 -5 22 -5.6 96 96 SSW 3 6 30.3 1026 10 16.0934 0.01 0.254
7:56 am 07:56 Sunny 25 -3.9 23 -5 92 92 SW 6 9 30.31 1027 10 16.0934 0 0
8:56 am 08:56 Sunny 28 -2.2 25 -3.9 88 88 SW 8 13 30.32 1027 10 16.0934 0 0
9:56 am 09:56 Sunny 30 -1.1 27 -2.8 88 88 SW 7 11 30.3 1026 10 16.0934 0 0
10:56 am 10:56 Mostly Sunny 33 0.6 27 -2.8 78 78 SW 8 13 30.31 1026 10 16.0934 0 0
11:56 am 11:56 Cloudy 34 1.1 28 -2.2 79 79 SSW 9 15 30.29 1026 10 16.0934 0 0
12:56 pm 12:56 Mostly Sunny 35 1.7 27 -2.8 72 72 SW 6 9 30.24 1024 10 16.0934 0 0
1:56 pm 13:56 Mostly Sunny 36 2.2 28 -2.2 73 73 SW 9 15 30.22 1024 10 16.0934 0 0
2:56 pm 14:56 Cloudy 37 2.8 29 -1.7 73 73 SW 7 11 30.22 1023 10 16.0934 0 0
3:56 pm 15:56 Cloudy 37 2.8 29 -1.7 73 73 Calm 30.18 1022 10 16.0934 0.01 0.254
4:56 pm 16:56 Cloudy 36 2.2 29 -1.7 76 76 SW 5 7 30.19 1022 10 16.0934 0 0
5:56 pm 17:56 Mostly Cloudy 36 2.2 30 -1.1 79 79 S 8 13 30.18 1022 10 16.0934 0 0
6:56 pm 18:56 Clear 35 1.7 28 -2.2 76 76 S 5 7 30.17 1022 10 16.0934 0 0
7:56 pm 19:56 Mostly Cloudy 34 1.1 28 -2.2 79 79 SW 6 9 30.18 1022 10 16.0934 0 0
8:56 pm 20:56 Mostly Clear 34 1.1 29 -1.7 82 82 SW 6 9 30.17 1022 10 16.0934 0 0
9:56 pm 21:56 Cloudy 35 1.7 30 -1.1 82 82 SSW 9 15 30.15 1021 10 16.0934 0 0
10:56 pm 22:56 Cloudy 36 2.2 30 -1.1 79 79 SSW 9 15 30.14 1021 10 16.0934 0 0
11:56 pm 23:56 Cloudy 36 2.2 31 -0.6 82 82 WSW 7 11 30.14 1021 10 16.0934 0 0

Powered by AerisWeather